Tracking 20942 objects as of 10-Jul-2020
HD Live streaming from Space Station
objects crossing your sky now

COSMOS 637

Track COSMOS 637 now!
COSMOS 637 is classified as:


NORAD ID: 7229
Int'l Code: 1974-017A
Perigee: 35,479.1 km
Apogee: 35,827.8 km
Inclination: 6.3 °
Period: 1,428.9 minutes
Semi major axis: 42024 km
RCS: 2.5118 m2 (large)
Launch date: March 26, 1974
Source: Commonwealth of Independent States (former USSR) (CIS)
Launch site: TYURATAM MISSILE AND SPACE COMPLEX (TTMTR)
aabbcc
Your satellite tracking list
Your tracking list is empty




NASA's NSSDC Master Catalog

Two Line Element Set (TLE):
1  7229U 74017A   20191.09148021 +.00000104 +00000-0 +00000-0 0  9992
2  7229 006.2646 293.7782 0041483 003.7306 029.7651 01.00774287100347
Source of the keplerian elements: AFSPC